SCP
0 0 0 0 0 0 0 0 0 0 0 0 0 0 0 0 0 0 0 0 0 0 0 0 0 0 0 0 0 0 0 0 0 0 0 0 0 0 0 0 0 0 0 0 0 0 0 0 0 0 0 0 0 0
0 0 -0 0 0 0 0 0 0 0 0 0 0 0 0 0 0 0 0 0 0 0 0 0 0 0 0 0 0 0 0 0 0 0 0 0 0 0 0 0 0 0 0 0 0 0 0 0 0 0 0 0 0 0
0 0 0 0 0 0 0 0 0 0 0 0 0 0 0 0 0 0 0 0 0 0 0 0 0 0 0 0 0 0 0 0 0 0 0 0 0 0 0 0 0 0 0 0 0 0 0 0 0 0 0 0 0 0
0 0 0 0 0 0 0 0 0 0 0 0 0 0 0 0 0 0 0 0 0 0 0 0 0 0 0 0 0 0 0 0 0 0 0 0 0 0 0 0 0 0 -0 -0 0 0 0 -0 0 0 0 0 0 0
0 0 0 0 0 0 0 0 0 0 0 0 0 0 0 0 0 0 0 0 0 0 0 0 0 0 0 0 0 0 0 0 0 0 0 0 0 0 0 0 0 0 0 0 0 0 0 0 0 0 0 0 0 0
0 0 -0 -0 0 0 0 0 0 0 0 0 0 0 0 0 0 0 0 0 0 0 0 0 0 0 0 0 0 0 0 0 0 0 0 0 0 0 0 0 -0 0 0 0 0 0 0 0 0 -0 0 0 0 0
-0 0 0 -0 0 0 0 0 0 0 0 0 0 0 0 0 0 0 0 0 0 0 0 0 0 0 0 0 0 0 0 0 0 0 0 0 0 0 0 0 0 0 0 0 0 0 0 0 0 0 0 0 0 0
-0 0 0 0 0 0 0 0 0 0 0 0 0 0 0 0 0 0 0 0 0 0 0 0 0 0 0 0 0 0 0 0 0 0 0 0 0 0 0 0 0 0 0 0 0 0 0 0 0 0 0 0 0 0
0 0 0 0 0 0 0 0 0 0 0 0 0 0 0 0 0 0 0 0 0 0 0 0 0 0 0 0 0 0 0 0 0 0 0 0 0 0 0 0 0 0 0 0 0 0 0 0 0 0 0 0 0 0
0 0 0 0 0 0 0 0 0 0 0 0 0 0 0 0 0 0 0 0 0 0 0 0 0 0 0 0 0 0 0 0 0 0 0 0 0 0 0 0 0 0 0 0 0 0 0 0 0 0 0 0 0 0
0 0 0 0 0 0 0 0 0 0 0 0 0 0 0 0 0 0 0 0 0 0 0 0 0 0 0 0 0 0 0 0 0 0 0 0 0 0 0 0 0 0 0 0 0 0 0 0 0 0 0 0 0 0
0 0 0 0 0 0 0 0 0 0 0 0 0 0 0 0 0 0 0 0 0 0 0 0 0 0 0 0 0 0 0 0 0 0 0 0 0 0 0 0 0 0 0 0 0 0 0 0 0 0 0 0 0 0
0 0 0 0 0 0 0 0 0 0 0 0 0 0 0 0 0 0 0 0 0 0 0 0 0 0 0 0 0 0 0 0 0 0 0 0 0 0 0 0 0 0 0 0 0 0 0 0 0 0 0 0 0 0
0 0 0 0 0 0 0 0 0 0 0 0 0 0 0 0 0 0 0 0 0 0 0 0 0 0 0 0 0 0 0 0 0 0 0 0 0 0 0 0 0 0 0 0 0 0 0 0 0 0 0 0 0 0
0 0 0 0 0 0 0 0 0 0 0 0 0 0 0 0 0 0 0 0 0 0 0 0 0 0 0 0 0 0 0 0 0 0 0 0 0 0 0 0 0 0 0 0 0 0 0 0 0 0 0 0 0 0
0 0 0 0 0 0 0 0 0 0 0 0 0 0 0 0 0 0 0 0 0 0 0 0 0 0 0 0 0 0 0 0 0 0 0 0 0 0 0 0 0 0 0 0 0 0 0 0 0 0 0 0 0 0
0 0 0 -0 -0 0 0 0 0 0 0 0 0 0 0 0 0 0 0 0 0 0 0 0 0 0 0 0 0 0 0 0 0 0 0 0 0 -0 0 0 0 0 0 0 0 0 0 0 0 0 0 0 0 0
0 0 0 0 0 0 0 0 0 0 0 0 0 0 0 0 0 0 0 0 0 0 0 0 0 0 0 0 0 0 0 0 0 0 0 0 0 0 0 0 0 0 0 0 0 0 0 0 0 0 0 0 0 0
0 0 0 0 0 0 0 0 0 0 0 0 0 0 0 0 0 0 0 0 0 0 0 0 0 0 0 0 0 0 0 0 0 0 0 0 0 0 0 0 0 0 0 0 0 0 0 0 0 0 0 0 0 0
-0 -0 -0 -0 0 0 0 0 0 0 0 0 0 0 0 0 0 0 0 0 0 0 0 0 0 0 0 0 0 0 0 0 0 0 0 0 0 0 0 0 0 0 0 0 0 0 0 0 0 0 0 0 0 0
-0 -0 -0 0 0 0 0 0 0 0 0 0 0 0 0 0 0 0 0 0 0 0 0 0 0 0 0 0 0 0 0 0 0 0 0 0 0 0 0 0 0 0 0 0 0 0 0 0 0 0 0 0 0 0
0 -0 0 0 0 0 0 0 0 0 0 0 0 0 0 0 0 0 0 0 0 0 0 0 0 0 0 0 0 0 0 0 0 0 0 0 0 0 0 0 0 0 0 0 0 0 0 0 0 0 0 0 0 0
0 0 0 0 0 0 0 0 0 0 0 0 0 0 0 0 0 0 0 0 0 0 0 0 0 0 0 0 0 0 0 0 0 0 0 0 0 0 0 0 0 0 0 0 0 0 0 0 0 0 0 0 0 0
0 0 0 0 0 0 0 0 0 0 0 0 0 0 0 0 0 0 0 0 0 0 0 0 0 0 0 0 0 0 0 0 0 0 0 0 0 0 0 0 0 0 0 0 0 0 0 0 0 0 0 0 0 0
0 0 0 0 0 0 0 0 0 0 0 0 0 0 0 0 0 0 0 0 0 0 0 0 0 0 0 0 0 0 0 0 0 0 0 0 0 0 0 0 0 0 0 0 0 0 0 0 0 0 0 0 0 0
0 0 0 0 0 0 0 0 0 0 0 0 0 0 0 0 0 0 0 0 0 0 0 0 0 0 0 0 0 0 0 0 0 0 0 0 0 0 0 0 0 0 0 0 0 0 0 0 0 0 0 0 0 0
0 0 0 0 0 0 0 0 0 0 0 0 0 0 0 0 0 0 0 0 0 0 0 0 0 0 0 0 0 0 0 0 0 0 0 -0 0 0 0 0 0 0 0 0 0 0 0 0 0 0 0 0 0 0
0 0 0 0 0 0 0 0 0 0 0 0 0 0 0 0 0 0 0 0 0 0 0 0 0 0 0 0 0 0 0 0 0 0 0 0 0 0 0 0 0 0 0 0 0 0 0 0 0 0 0 0 0 0
0 0 0 0 0 0 0 0 0 0 0 0 0 0 0 0 0 0 0 0 0 0 0 0 0 0 0 0 0 0 0 0 0 0 0 0 0 0 0 0 0 0 0 0 0 0 0 0 0 0 0 0 0 0
-0 -0 0 0 0 0 0 0 0 0 0 0 0 0 0 0 0 0 0 0 0 0 0 0 0 0 0 0 0 0 0 0 0 0 0 0 0 0 0 0 0 0 0 0 0 0 -0 0 0 0 0 0 0 0
0 0 0 0 0 0 0 0 0 0 0 0 0 0 0 0 0 0 0 0 0 0 0 0 0 0 0 0 0 0 0 0 0 0 0 0 0 0 0 0 0 0 0 0 0 0 0 0 0 0 0 0 0 0
0 0 0 0 0 0 0 0 0 0 0 0 0 0 0 0 0 0 0 0 0 0 0 0 0 0 0 0 0 0 0 0 0 0 0 0 0 0 0 0 0 0 0 0 0 0 0 0 0 0 0 0 0 0
0 0 0 0 0 0 0 0 0 0 0 0 0 0 0 0 0 0 0 0 0 0 0 0 0 0 0 0 0 0 0 0 0 -0 -0 0 0 0 0 0 0 0 0 0 0 0 0 0 0 0 0 0 0 0
Wind_Speed_500mb
75 77 79 75 80 80 77 78 76 71 68 64 63 63 60 59 56 58 61 53 56 20 20 24 54 43 22 20 7 11 4 6 6 8 7 8 8 11 4 11 8 13 12 14 13 21 31 10 2 16 18 18 13 17
83 82 79 77 76 82 79 80 75 79 70 67 67 62 63 62 61 58 62 63 57 38 20 23 45 53 44 45 42 26 19 15 31 4 2 3 4 1 8 12 7 7 7 4 10 5 8 18 25 38 37 37 38 38
89 89 81 77 75 89 81 78 75 76 69 67 64 65 65 63 64 66 67 54 60 40 34 45 52 61 47 43 50 29 36 39 27 28 8 6 10 4 8 17 21 16 33 13 8 19 31 56 55 64 51 34 55 38
73 78 82 77 79 93 83 77 74 75 74 65 62 61 63 62 60 62 68 71 54 15 13 23 35 37 36 41 65 62 66 58 55 41 22 11 13 21 14 8 7 8 3 8 15 10 20 16 47 63 58 46 51 62
61 61 68 68 93 89 72 72 73 73 68 61 62 60 59 60 57 56 60 62 59 53 9 9 23 40 37 40 34 37 47 55 50 31 18 18 13 14 5 3 8 15 12 9 6 21 32 50 63 43 41 41 40 40
52 55 54 54 65 60 59 66 70 72 63 59 54 53 54 50 50 48 33 56 65 67 21 7 15 35 44 44 44 56 54 43 40 25 25 30 34 26 7 9 18 59 64 56 33 63 49 55 52 44 43 52 32 30
40 46 47 54 49 46 56 67 61 54 59 56 52 46 44 45 50 54 14 21 45 71 21 5 6 22 38 37 39 42 45 32 32 21 21 11 20 31 12 25 40 34 29 38 46 54 29 42 26 22 29 39 35 31
33 35 31 29 33 45 65 48 49 58 60 53 47 43 44 46 44 43 58 28 29 66 20 7 6 2 20 13 9 18 16 25 24 18 14 13 16 14 12 25 60 62 49 41 29 36 48 40 39 43 42 44 41 37
37 5 27 29 38 46 44 51 60 60 56 49 44 36 33 36 33 54 46 49 46 39 11 9 9 8 17 12 10 9 15 7 15 10 10 18 13 11 18 44 58 55 47 49 34 41 42 44 47 40 39 38 40 37
27 20 9 31 27 37 49 49 51 53 55 48 39 23 16 20 33 33 56 51 38 26 14 5 16 4 20 18 6 2 8 6 5 9 6 5 6 11 9 3 7 17 27 38 34 37 40 50 48 45 41 40 40 38
25 18 11 24 36 42 44 48 55 52 49 45 20 16 17 38 33 19 8 9 11 8 19 22 32 7 20 6 7 16 4 4 6 9 10 4 6 4 11 12 16 15 13 19 20 25 28 29 27 27 31 30 28 28
25 22 21 28 35 40 46 53 55 55 38 42 29 30 35 18 13 9 4 2 2 9 6 8 14 34 18 17 6 8 7 4 13 3 4 6 1 25 27 23 20 20 19 22 15 19 22 24 23 22 25 22 21 28
27 29 31 34 35 39 45 47 48 51 46 44 18 11 16 6 11 13 10 2 2 3 11 6 6 21 14 19 5 6 9 11 8 3 7 3 13 33 38 30 20 18 18 19 13 16 18 17 16 18 20 20 21 26
36 37 30 30 34 38 40 43 56 60 45 8 12 9 6 5 2 5 6 7 5 2 8 6 7 6 11 8 5 7 7 6 2 6 11 4 28 41 36 33 27 20 16 14 11 10 12 12 13 13 19 21 21 24
23 23 27 27 32 33 35 43 81 68 12 7 6 5 5 10 15 12 15 11 15 7 5 5 5 8 4 4 7 4 3 8 10 8 4 21 34 35 35 32 26 21 16 12 8 8 6 9 11 17 20 23 22 20
16 20 19 22 28 32 41 45 65 29 13 10 17 9 7 6 7 12 15 6 16 9 3 3 4 7 9 7 7 9 9 12 1 5 21 32 30 28 28 26 23 18 11 8 4 2 5 9 13 18 23 23 21 20
47 42 29 41 49 42 45 51 21 17 14 12 9 22 18 19 13 7 7 9 14 7 2 4 9 8 5 5 3 3 6 2 14 21 21 19 21 21 19 15 12 9 9 6 7 9 14 20 24 26 29 31 29 28
36 28 33 28 28 30 14 20 14 16 16 19 10 11 23 16 9 15 12 20 9 5 7 2 3 5 3 9 5 1 3 9 6 14 16 15 14 14 12 10 11 14 16 13 18 23 27 29 31 35 36 36 36 36
31 27 27 22 18 13 12 16 17 12 14 13 18 19 19 19 35 23 14 16 21 17 11 9 10 4 3 3 2 1 6 10 13 15 13 11 9 8 9 11 14 20 24 24 25 31 34 34 38 37 35 32 37 37
23 20 19 14 11 12 14 15 14 17 7 8 11 11 12 13 12 24 29 22 17 11 13 9 3 2 3 4 8 12 10 7 6 7 7 7 8 8 12 17 21 25 26 26 28 34 35 35 36 34 31 31 29 29
19 23 20 16 28 27 17 12 16 12 14 13 9 9 11 13 14 18 21 21 17 12 5 7 7 4 6 5 6 5 2 2 5 7 5 7 10 12 17 18 20 23 27 28 29 33 29 31 31 28 25 25 23 20
17 15 18 21 17 15 19 19 14 11 10 11 8 8 11 7 11 16 14 23 11 8 4 3 8 7 4 2 3 2 3 4 3 7 10 15 19 20 21 24 23 26 26 26 26 26 24 24 22 20 19 19 17 15
15 11 16 17 13 16 8 11 10 12 7 4 6 8 7 6 7 12 11 9 7 10 6 3 5 7 5 5 6 5 8 8 12 15 16 17 20 22 22 23 21 21 23 23 20 18 17 16 14 12 12 11 10 11
17 16 21 19 26 6 7 15 11 10 9 8 7 6 7 8 8 11 4 4 8 8 2 4 7 10 10 9 11 13 15 15 18 21 21 19 21 22 19 17 16 15 15 15 12 10 8 7 8 10 12 14 16 17
13 27 19 15 23 12 13 10 11 9 7 5 6 6 5 7 5 5 2 2 6 7 9 10 10 12 18 18 17 17 18 15 17 20 21 19 17 17 15 13 10 7 6 5 5 7 10 12 14 17 19 20 22 24
18 24 13 9 12 9 4 7 7 4 4 6 3 10 7 5 7 2 4 3 3 4 6 10 15 16 16 17 18 18 19 16 14 11 11 10 8 6 3 0 2 4 6 8 10 11 14 17 20 22 25 27 31 35
13 9 14 19 8 6 9 11 9 9 7 6 6 9 5 6 4 6 2 1 1 4 6 8 10 11 13 13 13 12 11 10 8 8 6 3 2 1 3 5 7 9 11 13 16 19 22 25 28 31 32 26 26 32
13 16 8 17 14 16 7 6 6 4 4 8 4 6 6 9 7 5 5 3 5 9 9 9 9 10 10 9 8 7 7 7 6 6 7 8 10 10 11 11 14 16 19 22 25 28 31 33 34 34 34 31 28 28
12 11 6 9 8 11 11 3 2 4 6 3 1 1 4 5 5 7 9 8 9 9 9 8 7 6 6 8 7 6 6 8 10 11 12 12 11 12 12 18 22 25 26 26 29 33 34 35 36 38 38 39 40 42
11 13 5 6 7 6 11 8 8 6 3 2 2 1 2 2 6 7 8 8 8 8 9 8 6 5 6 5 5 6 9 12 13 14 15 14 16 20 23 25 27 30 33 34 32 31 33 38 39 40 44 46 48 53
11 10 9 11 6 4 10 6 5 6 5 5 5 2 1 1 1 3 7 9 10 10 9 7 6 7 8 8 9 10 11 12 13 16 18 19 21 24 27 29 31 33 34 35 35 36 39 40 43 47 50 54 56 61
13 12 4 4 1 6 9 5 3 1 2 2 3 4 4 4 5 4 4 7 10 13 11 11 10 10 11 10 11 13 13 16 18 19 21 23 24 27 29 30 31 34 36 39 40 42 45 50 54 57 62 67 70 74
5 8 7 4 4 3 13 11 9 4 1 2 3 4 4 5 7 5 6 6 8 8 8 8 9 9 10 12 14 15 17 17 19 22 25 28 29 30 32 31 33 35 39 42 44 48 52 57 62 66 71 76 81 84
Wind_Direction_500mb
273 269 266 261 253 247 243 241 239 230 226 225 226 225 226 223 224 221 224 218 216 230 227 209 230 223 216 224 194 228 64 255 179 219 171 209 206 223 215 244 228 231 206 216 224 242 252 21 10 192 328 308 279 244
273 268 264 260 256 243 239 237 234 229 221 220 220 220 224 224 224 220 226 225 221 219 248 238 240 235 231 240 246 226 222 185 206 135 292 66 238 215 165 260 241 227 250 248 231 234 241 282 253 300 298 309 316 305
272 263 259 257 252 244 237 231 229 224 217 220 220 221 221 222 221 216 223 221 202 214 245 252 247 250 242 236 238 238 243 238 241 255 204 214 253 99 218 238 256 260 246 248 258 232 247 282 296 286 264 259 291 289
267 258 251 250 248 244 233 224 222 222 213 212 218 222 223 220 220 215 217 225 219 192 194 248 242 246 245 249 236 236 243 251 261 265 244 238 238 201 251 247 194 218 82 229 260 309 329 300 321 316 306 281 261 264
269 256 252 251 244 246 216 215 219 214 207 206 217 221 214 215 214 213 219 224 222 207 184 228 234 229 234 257 250 234 244 247 239 240 239 233 213 229 205 185 212 180 202 238 256 259 273 272 290 294 297 283 285 262
262 255 246 249 265 203 207 211 210 202 202 204 206 213 208 205 207 208 211 228 226 223 217 190 234 243 248 248 241 242 243 234 232 234 240 230 232 201 204 237 226 247 247 245 252 272 272 273 271 272 278 288 275 263
271 251 235 254 234 205 208 207 193 192 193 195 199 196 199 205 207 204 185 218 213 214 216 174 285 210 226 222 231 245 248 221 219 239 245 244 201 200 229 242 248 239 235 252 255 259 268 252 253 275 269 276 296 285
314 231 224 233 224 212 197 181 185 186 181 180 186 193 202 207 214 223 222 227 194 189 197 148 250 315 195 180 217 221 222 224 221 230 235 242 219 214 224 230 239 245 248 250 243 237 248 257 246 262 278 279 280 271
328 263 218 221 240 192 177 178 181 177 177 179 183 186 196 207 210 219 223 216 219 206 178 141 151 219 176 192 225 227 216 237 212 216 225 209 207 230 205 224 234 244 236 240 242 234 239 248 265 268 271 276 266 255
293 295 270 200 180 166 171 173 176 178 177 174 171 176 186 199 202 205 183 180 186 209 204 155 162 181 161 172 212 265 222 232 228 229 169 249 236 204 40 285 258 218 231 239 251 257 263 267 273 277 272 264 253 242
270 252 238 172 177 177 178 179 177 172 168 168 158 162 165 162 166 195 206 187 160 161 169 178 184 146 187 123 195 201 187 267 278 254 178 168 277 77 356 289 288 299 270 252 240 250 253 261 270 266 255 246 240 230
246 224 199 184 181 180 178 173 171 175 171 176 160 153 149 173 177 190 187 34 134 198 149 162 199 192 185 195 140 200 179 78 236 177 263 242 118 9 354 333 317 309 300 286 266 267 265 262 256 245 225 219 206 207
227 193 181 171 168 171 171 173 177 179 172 159 169 171 172 145 185 168 163 310 39 256 134 160 149 158 156 190 186 132 178 224 121 163 235 223 12 350 351 338 338 318 308 291 281 267 261 263 251 226 216 205 201 196
140 155 159 165 172 174 173 175 179 177 158 145 150 164 156 138 174 169 144 142 73 68 104 136 128 172 173 166 182 222 214 90 241 207 225 13 348 344 344 348 338 333 319 309 291 262 241 223 219 199 203 195 191 184
122 138 156 164 172 175 181 182 167 170 131 105 96 128 88 124 71 82 90 99 32 49 103 161 234 208 164 199 204 119 197 236 198 229 342 328 338 338 339 343 343 333 322 317 288 245 212 174 176 174 167 174 166 157
166 164 176 178 170 177 189 185 145 129 80 73 52 70 42 72 12 44 39 61 17 24 122 186 218 201 206 186 169 214 145 218 152 315 310 326 333 340 344 346 339 336 336 321 295 203 150 150 159 151 140 142 139 134
102 92 142 151 187 174 164 146 118 62 69 55 48 58 59 59 84 84 64 347 8 43 82 301 191 206 327 78 156 12 192 201 317 326 328 326 330 344 345 347 353 7 35 43 82 104 126 127 127 125 126 116 118 119
101 93 100 111 153 157 100 47 81 75 64 48 74 37 59 64 78 51 46 26 51 57 18 76 325 83 161 180 225 212 343 320 327 346 346 349 353 355 1 25 47 64 79 81 101 117 120 124 123 110 109 109 110 106
110 106 103 96 105 96 67 44 38 83 73 85 88 70 71 77 54 58 66 66 72 80 97 46 65 89 131 33 100 308 347 355 343 357 359 8 15 39 70 82 93 101 105 106 110 112 108 109 105 103 103 107 103 99
84 105 102 90 73 78 78 50 58 83 78 92 84 67 77 72 49 42 52 66 73 52 46 44 129 202 247 264 294 288 304 322 328 333 4 36 70 101 114 112 115 114 114 113 109 106 103 103 101 101 99 96 96 92
94 81 74 82 62 63 79 64 62 73 104 83 89 63 69 56 40 28 26 31 61 40 71 63 38 357 294 289 284 282 283 305 262 249 224 127 120 129 123 119 120 122 121 118 112 106 108 99 97 97 96 93 85 79
111 97 69 57 68 67 70 50 84 91 82 103 78 60 51 39 20 12 20 47 61 43 53 58 39 40 44 181 156 143 113 99 153 151 157 143 134 129 125 123 128 123 122 113 106 104 101 97 93 88 81 76 68 56
115 86 62 48 80 55 36 38 67 36 76 40 61 50 32 29 24 9 70 57 73 2 5 58 74 66 60 100 106 126 124 145 155 140 138 136 130 124 124 124 124 121 111 103 99 96 92 84 79 70 57 44 28 9
97 58 36 40 36 49 41 34 46 51 55 39 52 29 357 5 5 55 70 43 17 13 355 156 129 109 110 117 121 122 127 138 139 134 129 132 132 125 124 120 115 112 114 105 92 75 55 29 14 2 350 343 338 332
85 14 23 15 23 36 36 20 6 42 52 352 75 6 334 346 64 55 163 344 34 55 82 104 132 140 133 117 111 118 125 135 137 134 130 130 129 123 122 122 118 107 82 56 19 353 342 338 334 330 328 325 321 316
69 20 43 3 11 52 9 60 35 20 30 46 347 309 341 79 59 259 247 316 42 84 118 130 130 135 134 133 131 131 133 139 140 146 147 149 148 142 131 99 334 341 336 328 323 321 321 318 315 317 318 319 319 319
54 351 35 31 33 62 58 57 54 65 58 27 308 347 39 68 256 256 252 290 192 138 146 145 149 147 145 148 148 148 154 165 166 162 168 175 197 254 284 288 298 306 307 307 309 311 313 313 314 313 313 316 313 311
59 37 57 0 47 38 102 50 47 37 312 344 296 30 155 187 224 197 214 196 163 155 152 157 164 165 168 172 172 178 190 198 210 227 248 273 282 279 282 285 303 303 307 312 311 310 309 309 311 311 312 314 314 311
40 2 22 18 50 55 49 92 264 318 302 318 21 313 274 263 219 178 158 147 151 158 156 160 169 171 179 201 207 203 222 234 247 259 268 276 286 295 293 297 302 305 305 307 310 311 309 308 310 312 313 314 317 318
20 21 80 49 63 46 20 13 6 20 86 157 171 86 24 106 159 161 161 163 165 169 168 174 185 203 222 231 246 251 256 260 262 267 276 284 290 294 298 303 306 307 307 308 308 305 303 303 303 304 307 310 312 311
16 27 61 47 81 15 347 357 47 52 50 59 66 41 324 247 191 190 214 211 209 211 210 215 234 246 254 265 270 269 276 275 276 280 285 292 298 302 302 303 304 304 304 305 305 306 306 308 310 311 310 310 310 310
26 41 58 58 299 354 1 4 6 12 341 300 320 329 304 301 282 250 243 229 224 226 229 240 252 252 260 268 275 279 286 295 296 296 299 302 303 302 300 301 301 302 304 306 307 309 310 310 309 309 309 310 311 312
35 26 37 8 7 9 357 357 24 356 311 272 303 328 305 265 253 253 275 246 231 230 235 248 259 269 279 287 293 293 299 298 296 298 300 301 301 301 301 303 303 304 304 305 306 306 307 306 306 308 310 312 312 313
Wind_Speed_850mb
75 77 79 75 80 80 77 78 76 71 68 64 63 63 60 59 56 58 61 53 56 20 20 24 54 43 22 20 7 11 4 6 6 8 7 8 8 11 4 11 8 13 12 14 13 21 31 10 2 16 18 18 13 17
83 82 79 77 76 82 79 80 75 79 70 67 67 62 63 62 61 58 62 63 57 38 20 23 45 53 44 45 42 26 19 15 31 4 2 3 4 1 8 12 7 7 7 4 10 5 8 18 25 38 37 37 38 38
89 89 81 77 75 89 81 78 75 76 69 67 64 65 65 63 64 66 67 54 60 40 34 45 52 61 47 43 50 29 36 39 27 28 8 6 10 4 8 17 21 16 33 13 8 19 31 56 55 64 51 34 55 38
73 78 82 77 79 93 83 77 74 75 74 65 62 61 63 62 60 62 68 71 54 15 13 23 35 37 36 41 65 62 66 58 55 41 22 11 13 21 14 8 7 8 3 8 15 10 20 16 47 63 58 46 51 62
61 61 68 68 93 89 72 72 73 73 68 61 62 60 59 60 57 56 60 62 59 53 9 9 23 40 37 40 34 37 47 55 50 31 18 18 13 14 5 3 8 15 12 9 6 21 32 50 63 43 41 41 40 40
52 55 54 54 65 60 59 66 70 72 63 59 54 53 54 50 50 48 33 56 65 67 21 7 15 35 44 44 44 56 54 43 40 25 25 30 34 26 7 9 18 59 64 56 33 63 49 55 52 44 43 52 32 30
40 46 47 54 49 46 56 67 61 54 59 56 52 46 44 45 50 54 14 21 45 71 21 5 6 22 38 37 39 42 45 32 32 21 21 11 20 31 12 25 40 34 29 38 46 54 29 42 26 22 29 39 35 31
33 35 31 29 33 45 65 48 49 58 60 53 47 43 44 46 44 43 58 28 29 66 20 7 6 2 20 13 9 18 16 25 24 18 14 13 16 14 12 25 60 62 49 41 29 36 48 40 39 43 42 44 41 37
37 5 27 29 38 46 44 51 60 60 56 49 44 36 33 36 33 54 46 49 46 39 11 9 9 8 17 12 10 9 15 7 15 10 10 18 13 11 18 44 58 55 47 49 34 41 42 44 47 40 39 38 40 37
27 20 9 31 27 37 49 49 51 53 55 48 39 23 16 20 33 33 56 51 38 26 14 5 16 4 20 18 6 2 8 6 5 9 6 5 6 11 9 3 7 17 27 38 34 37 40 50 48 45 41 40 40 38
25 18 11 24 36 42 44 48 55 52 49 45 20 16 17 38 33 19 8 9 11 8 19 22 32 7 20 6 7 16 4 4 6 9 10 4 6 4 11 12 16 15 13 19 20 25 28 29 27 27 31 30 28 28
25 22 21 28 35 40 46 53 55 55 38 42 29 30 35 18 13 9 4 2 2 9 6 8 14 34 18 17 6 8 7 4 13 3 4 6 1 25 27 23 20 20 19 22 15 19 22 24 23 22 25 22 21 28
27 29 31 34 35 39 45 47 48 51 46 44 18 11 16 6 11 13 10 2 2 3 11 6 6 21 14 19 5 6 9 11 8 3 7 3 13 33 38 30 20 18 18 19 13 16 18 17 16 18 20 20 21 26
36 37 30 30 34 38 40 43 56 60 45 8 12 9 6 5 2 5 6 7 5 2 8 6 7 6 11 8 5 7 7 6 2 6 11 4 28 41 36 33 27 20 16 14 11 10 12 12 13 13 19 21 21 24
23 23 27 27 32 33 35 43 81 68 12 7 6 5 5 10 15 12 15 11 15 7 5 5 5 8 4 4 7 4 3 8 10 8 4 21 34 35 35 32 26 21 16 12 8 8 6 9 11 17 20 23 22 20
16 20 19 22 28 32 41 45 65 29 13 10 17 9 7 6 7 12 15 6 16 9 3 3 4 7 9 7 7 9 9 12 1 5 21 32 30 28 28 26 23 18 11 8 4 2 5 9 13 18 23 23 21 20
47 42 29 41 49 42 45 51 21 17 14 12 9 22 18 19 13 7 7 9 14 7 2 4 9 8 5 5 3 3 6 2 14 21 21 19 21 21 19 15 12 9 9 6 7 9 14 20 24 26 29 31 29 28
36 28 33 28 28 30 14 20 14 16 16 19 10 11 23 16 9 15 12 20 9 5 7 2 3 5 3 9 5 1 3 9 6 14 16 15 14 14 12 10 11 14 16 13 18 23 27 29 31 35 36 36 36 36
31 27 27 22 18 13 12 16 17 12 14 13 18 19 19 19 35 23 14 16 21 17 11 9 10 4 3 3 2 1 6 10 13 15 13 11 9 8 9 11 14 20 24 24 25 31 34 34 38 37 35 32 37 37
23 20 19 14 11 12 14 15 14 17 7 8 11 11 12 13 12 24 29 22 17 11 13 9 3 2 3 4 8 12 10 7 6 7 7 7 8 8 12 17 21 25 26 26 28 34 35 35 36 34 31 31 29 29
19 23 20 16 28 27 17 12 16 12 14 13 9 9 11 13 14 18 21 21 17 12 5 7 7 4 6 5 6 5 2 2 5 7 5 7 10 12 17 18 20 23 27 28 29 33 29 31 31 28 25 25 23 20
17 15 18 21 17 15 19 19 14 11 10 11 8 8 11 7 11 16 14 23 11 8 4 3 8 7 4 2 3 2 3 4 3 7 10 15 19 20 21 24 23 26 26 26 26 26 24 24 22 20 19 19 17 15
15 11 16 17 13 16 8 11 10 12 7 4 6 8 7 6 7 12 11 9 7 10 6 3 5 7 5 5 6 5 8 8 12 15 16 17 20 22 22 23 21 21 23 23 20 18 17 16 14 12 12 11 10 11
17 16 21 19 26 6 7 15 11 10 9 8 7 6 7 8 8 11 4 4 8 8 2 4 7 10 10 9 11 13 15 15 18 21 21 19 21 22 19 17 16 15 15 15 12 10 8 7 8 10 12 14 16 17
13 27 19 15 23 12 13 10 11 9 7 5 6 6 5 7 5 5 2 2 6 7 9 10 10 12 18 18 17 17 18 15 17 20 21 19 17 17 15 13 10 7 6 5 5 7 10 12 14 17 19 20 22 24
18 24 13 9 12 9 4 7 7 4 4 6 3 10 7 5 7 2 4 3 3 4 6 10 15 16 16 17 18 18 19 16 14 11 11 10 8 6 3 0 2 4 6 8 10 11 14 17 20 22 25 27 31 35
13 9 14 19 8 6 9 11 9 9 7 6 6 9 5 6 4 6 2 1 1 4 6 8 10 11 13 13 13 12 11 10 8 8 6 3 2 1 3 5 7 9 11 13 16 19 22 25 28 31 32 26 26 32
13 16 8 17 14 16 7 6 6 4 4 8 4 6 6 9 7 5 5 3 5 9 9 9 9 10 10 9 8 7 7 7 6 6 7 8 10 10 11 11 14 16 19 22 25 28 31 33 34 34 34 31 28 28
12 11 6 9 8 11 11 3 2 4 6 3 1 1 4 5 5 7 9 8 9 9 9 8 7 6 6 8 7 6 6 8 10 11 12 12 11 12 12 18 22 25 26 26 29 33 34 35 36 38 38 39 40 42
11 13 5 6 7 6 11 8 8 6 3 2 2 1 2 2 6 7 8 8 8 8 9 8 6 5 6 5 5 6 9 12 13 14 15 14 16 20 23 25 27 30 33 34 32 31 33 38 39 40 44 46 48 53
11 10 9 11 6 4 10 6 5 6 5 5 5 2 1 1 1 3 7 9 10 10 9 7 6 7 8 8 9 10 11 12 13 16 18 19 21 24 27 29 31 33 34 35 35 36 39 40 43 47 50 54 56 61
13 12 4 4 1 6 9 5 3 1 2 2 3 4 4 4 5 4 4 7 10 13 11 11 10 10 11 10 11 13 13 16 18 19 21 23 24 27 29 30 31 34 36 39 40 42 45 50 54 57 62 67 70 74
5 8 7 4 4 3 13 11 9 4 1 2 3 4 4 5 7 5 6 6 8 8 8 8 9 9 10 12 14 15 17 17 19 22 25 28 29 30 32 31 33 35 39 42 44 48 52 57 62 66 71 76 81 84
Wind_Direction_850mb
273 269 266 261 253 247 243 241 239 230 226 225 226 225 226 223 224 221 224 218 216 230 227 209 230 223 216 224 194 228 64 255 179 219 171 209 206 223 215 244 228 231 206 216 224 242 252 21 10 192 328 308 279 244
273 268 264 260 256 243 239 237 234 229 221 220 220 220 224 224 224 220 226 225 221 219 248 238 240 235 231 240 246 226 222 185 206 135 292 66 238 215 165 260 241 227 250 248 231 234 241 282 253 300 298 309 316 305
272 263 259 257 252 244 237 231 229 224 217 220 220 221 221 222 221 216 223 221 202 214 245 252 247 250 242 236 238 238 243 238 241 255 204 214 253 99 218 238 256 260 246 248 258 232 247 282 296 286 264 259 291 289
267 258 251 250 248 244 233 224 222 222 213 212 218 222 223 220 220 215 217 225 219 192 194 248 242 246 245 249 236 236 243 251 261 265 244 238 238 201 251 247 194 218 82 229 260 309 329 300 321 316 306 281 261 264
269 256 252 251 244 246 216 215 219 214 207 206 217 221 214 215 214 213 219 224 222 207 184 228 234 229 234 257 250 234 244 247 239 240 239 233 213 229 205 185 212 180 202 238 256 259 273 272 290 294 297 283 285 262
262 255 246 249 265 203 207 211 210 202 202 204 206 213 208 205 207 208 211 228 226 223 217 190 234 243 248 248 241 242 243 234 232 234 240 230 232 201 204 237 226 247 247 245 252 272 272 273 271 272 278 288 275 263
271 251 235 254 234 205 208 207 193 192 193 195 199 196 199 205 207 204 185 218 213 214 216 174 285 210 226 222 231 245 248 221 219 239 245 244 201 200 229 242 248 239 235 252 255 259 268 252 253 275 269 276 296 285
314 231 224 233 224 212 197 181 185 186 181 180 186 193 202 207 214 223 222 227 194 189 197 148 250 315 195 180 217 221 222 224 221 230 235 242 219 214 224 230 239 245 248 250 243 237 248 257 246 262 278 279 280 271
328 263 218 221 240 192 177 178 181 177 177 179 183 186 196 207 210 219 223 216 219 206 178 141 151 219 176 192 225 227 216 237 212 216 225 209 207 230 205 224 234 244 236 240 242 234 239 248 265 268 271 276 266 255
293 295 270 200 180 166 171 173 176 178 177 174 171 176 186 199 202 205 183 180 186 209 204 155 162 181 161 172 212 265 222 232 228 229 169 249 236 204 40 285 258 218 231 239 251 257 263 267 273 277 272 264 253 242
270 252 238 172 177 177 178 179 177 172 168 168 158 162 165 162 166 195 206 187 160 161 169 178 184 146 187 123 195 201 187 267 278 254 178 168 277 77 356 289 288 299 270 252 240 250 253 261 270 266 255 246 240 230
246 224 199 184 181 180 178 173 171 175 171 176 160 153 149 173 177 190 187 34 134 198 149 162 199 192 185 195 140 200 179 78 236 177 263 242 118 9 354 333 317 309 300 286 266 267 265 262 256 245 225 219 206 207
227 193 181 171 168 171 171 173 177 179 172 159 169 171 172 145 185 168 163 310 39 256 134 160 149 158 156 190 186 132 178 224 121 163 235 223 12 350 351 338 338 318 308 291 281 267 261 263 251 226 216 205 201 196
140 155 159 165 172 174 173 175 179 177 158 145 150 164 156 138 174 169 144 142 73 68 104 136 128 172 173 166 182 222 214 90 241 207 225 13 348 344 344 348 338 333 319 309 291 262 241 223 219 199 203 195 191 184
122 138 156 164 172 175 181 182 167 170 131 105 96 128 88 124 71 82 90 99 32 49 103 161 234 208 164 199 204 119 197 236 198 229 342 328 338 338 339 343 343 333 322 317 288 245 212 174 176 174 167 174 166 157
166 164 176 178 170 177 189 185 145 129 80 73 52 70 42 72 12 44 39 61 17 24 122 186 218 201 206 186 169 214 145 218 152 315 310 326 333 340 344 346 339 336 336 321 295 203 150 150 159 151 140 142 139 134
102 92 142 151 187 174 164 146 118 62 69 55 48 58 59 59 84 84 64 347 8 43 82 301 191 206 327 78 156 12 192 201 317 326 328 326 330 344 345 347 353 7 35 43 82 104 126 127 127 125 126 116 118 119
101 93 100 111 153 157 100 47 81 75 64 48 74 37 59 64 78 51 46 26 51 57 18 76 325 83 161 180 225 212 343 320 327 346 346 349 353 355 1 25 47 64 79 81 101 117 120 124 123 110 109 109 110 106
110 106 103 96 105 96 67 44 38 83 73 85 88 70 71 77 54 58 66 66 72 80 97 46 65 89 131 33 100 308 347 355 343 357 359 8 15 39 70 82 93 101 105 106 110 112 108 109 105 103 103 107 103 99
84 105 102 90 73 78 78 50 58 83 78 92 84 67 77 72 49 42 52 66 73 52 46 44 129 202 247 264 294 288 304 322 328 333 4 36 70 101 114 112 115 114 114 113 109 106 103 103 101 101 99 96 96 92
94 81 74 82 62 63 79 64 62 73 104 83 89 63 69 56 40 28 26 31 61 40 71 63 38 357 294 289 284 282 283 305 262 249 224 127 120 129 123 119 120 122 121 118 112 106 108 99 97 97 96 93 85 79
111 97 69 57 68 67 70 50 84 91 82 103 78 60 51 39 20 12 20 47 61 43 53 58 39 40 44 181 156 143 113 99 153 151 157 143 134 129 125 123 128 123 122 113 106 104 101 97 93 88 81 76 68 56
115 86 62 48 80 55 36 38 67 36 76 40 61 50 32 29 24 9 70 57 73 2 5 58 74 66 60 100 106 126 124 145 155 140 138 136 130 124 124 124 124 121 111 103 99 96 92 84 79 70 57 44 28 9
97 58 36 40 36 49 41 34 46 51 55 39 52 29 357 5 5 55 70 43 17 13 355 156 129 109 110 117 121 122 127 138 139 134 129 132 132 125 124 120 115 112 114 105 92 75 55 29 14 2 350 343 338 332
85 14 23 15 23 36 36 20 6 42 52 352 75 6 334 346 64 55 163 344 34 55 82 104 132 140 133 117 111 118 125 135 137 134 130 130 129 123 122 122 118 107 82 56 19 353 342 338 334 330 328 325 321 316
69 20 43 3 11 52 9 60 35 20 30 46 347 309 341 79 59 259 247 316 42 84 118 130 130 135 134 133 131 131 133 139 140 146 147 149 148 142 131 99 334 341 336 328 323 321 321 318 315 317 318 319 319 319
54 351 35 31 33 62 58 57 54 65 58 27 308 347 39 68 256 256 252 290 192 138 146 145 149 147 145 148 148 148 154 165 166 162 168 175 197 254 284 288 298 306 307 307 309 311 313 313 314 313 313 316 313 311
59 37 57 0 47 38 102 50 47 37 312 344 296 30 155 187 224 197 214 196 163 155 152 157 164 165 168 172 172 178 190 198 210 227 248 273 282 279 282 285 303 303 307 312 311 310 309 309 311 311 312 314 314 311
40 2 22 18 50 55 49 92 264 318 302 318 21 313 274 263 219 178 158 147 151 158 156 160 169 171 179 201 207 203 222 234 247 259 268 276 286 295 293 297 302 305 305 307 310 311 309 308 310 312 313 314 317 318
20 21 80 49 63 46 20 13 6 20 86 157 171 86 24 106 159 161 161 163 165 169 168 174 185 203 222 231 246 251 256 260 262 267 276 284 290 294 298 303 306 307 307 308 308 305 303 303 303 304 307 310 312 311
16 27 61 47 81 15 347 357 47 52 50 59 66 41 324 247 191 190 214 211 209 211 210 215 234 246 254 265 270 269 276 275 276 280 285 292 298 302 302 303 304 304 304 305 305 306 306 308 310 311 310 310 310 310
26 41 58 58 299 354 1 4 6 12 341 300 320 329 304 301 282 250 243 229 224 226 229 240 252 252 260 268 275 279 286 295 296 296 299 302 303 302 300 301 301 302 304 306 307 309 310 310 309 309 309 310 311 312
35 26 37 8 7 9 357 357 24 356 311 272 303 328 305 265 253 253 275 246 231 230 235 248 259 269 279 287 293 293 299 298 296 298 300 301 301 301 301 303 303 304 304 305 306 306 307 306 306 308 310 312 312 313